Theta_e
288 287 287 286 286 286 285 285 285 285 285 284 284 284 283 284 283 282 282 281 281 280 280 280 280 279 280 279 279 279 279 278 278 278 278 278 277 277 277 276 276 276
288 287 287 287 286 286 286 285 285 285 284 284 284 284 284 283 283 282 282 281 281 280 280 280 279 279 279 279 279 278 278 278 278 279 278 277 277 277 277 277 276 276
287 287 286 286 286 285 285 285 285 285 284 284 284 284 283 283 282 282 282 281 280 280 279 279 279 279 279 279 278 279 278 278 278 278 278 277 277 277 277 276 276 276
287 287 286 286 286 285 285 284 284 284 284 283 283 283 283 283 282 281 281 281 280 279 279 279 279 279 279 278 278 278 278 278 278 278 277 277 277 277 276 276 277 276
286 286 286 285 285 285 284 284 283 283 283 283 282 282 282 281 281 281 280 280 280 279 279 279 279 278 278 278 278 278 277 277 277 277 277 276 277 277 276 276 276 275
286 286 286 285 285 284 283 283 283 283 283 282 282 282 281 281 281 281 280 280 279 279 279 279 278 278 278 278 278 278 277 277 277 277 277 276 276 276 277 276 276 275
285 285 285 285 284 283 283 283 283 283 282 282 281 281 281 281 281 280 280 280 279 279 278 278 278 278 278 278 277 277 277 277 276 276 276 275 275 275 276 275 275 274
285 285 284 284 283 283 283 283 282 282 282 281 281 281 281 281 280 280 280 279 279 278 278 278 278 278 278 278 277 277 276 276 276 275 275 274 274 273 274 274 274 273
285 284 283 283 283 283 282 282 282 282 281 281 281 280 281 281 280 280 280 279 279 278 278 278 278 278 278 277 277 276 276 275 275 275 274 273 273 273 272 273 272 272
284 284 283 282 282 283 282 282 282 281 281 281 281 280 280 280 280 280 279 279 278 278 278 277 277 277 277 277 277 276 275 275 274 274 274 273 273 272 272 272 272 271
284 283 282 282 282 283 282 282 281 281 281 281 280 280 280 279 279 279 279 278 278 278 277 277 277 276 276 276 276 275 275 275 274 274 273 273 273 273 274 272 272 271
283 283 283 282 282 282 282 282 281 281 280 280 280 280 279 279 279 278 278 278 278 277 277 277 276 276 276 275 275 275 274 274 274 273 273 272 272 273 273 273 272 272
283 283 283 283 283 283 282 282 281 280 280 280 280 280 279 278 278 278 278 278 277 277 277 276 276 275 275 275 274 274 274 274 273 273 273 273 273 272 273 272 272 271
284 284 283 283 283 282 281 281 280 280 280 280 279 279 279 278 278 278 277 277 277 276 276 276 275 275 274 274 274 274 274 274 273 273 272 272 271 271 271 271 271 271
284 284 283 282 282 281 280 280 280 279 279 279 279 279 279 278 278 277 276 276 275 275 275 275 275 275 275 274 274 274 273 272 272 272 271 271 271 271 271 271 271 272
284 282 282 281 280 280 280 280 279 279 279 278 278 278 277 277 277 276 276 275 275 274 274 274 275 275 276 278 277 273 272 272 271 271 271 271 270 270 271 271 271 272
282 281 281 280 280 280 280 279 279 278 278 277 277 277 276 276 276 275 275 275 274 274 274 274 274 274 279 281 280 279 273 272 271 270 271 271 270 270 270 271 271 272
282 281 279 279 279 279 278 278 278 277 277 277 276 275 275 275 274 274 274 274 274 273 273 273 273 277 281 281 281 280 276 272 271 271 271 270 271 271 271 272 272 272
280 280 279 278 278 278 277 277 276 276 276 275 275 275 274 273 274 274 273 274 273 273 273 273 272 279 282 282 281 280 278 274 271 271 271 271 271 271 272 272 273 273
280 279 279 278 277 277 276 276 275 276 276 275 275 274 274 274 274 273 274 273 273 273 273 272 271 278 282 282 282 281 279 275 271 271 271 272 272 272 273 273 273 273
280 279 278 277 277 276 276 275 275 275 275 275 275 274 274 274 273 273 273 273 272 272 272 271 271 278 281 282 282 282 280 275 271 272 272 273 273 274 274 274 274 273
279 278 278 277 276 276 275 275 275 275 275 274 274 274 274 274 273 273 272 272 272 271 271 270 271 279 282 282 282 282 282 275 273 273 273 273 274 274 274 274 273 272
279 278 277 276 276 275 275 275 275 275 274 274 273 273 273 273 272 272 272 271 271 270 270 269 270 278 282 282 282 282 281 275 274 274 274 273 273 273 273 273 273 272
278 278 277 276 275 274 274 275 275 275 274 273 273 272 272 272 271 270 270 270 270 269 270 269 269 277 282 281 281 282 279 274 274 273 272 272 272 273 273 273 273 275
277 276 276 275 274 274 274 274 274 273 273 273 273 272 272 271 270 269 268 269 269 269 272 270 269 276 281 281 281 282 278 274 273 272 272 272 272 272 272 272 272 274
276 276 275 274 273 273 273 273 272 271 270 271 271 271 270 269 268 269 268 267 268 268 270 269 269 272 277 281 280 281 279 274 273 272 271 271 272 271 271 272 272 273
Wind_Speed
11 10 12 11 12 11 11 12 11 12 12 11 13 12 13 11 11 12 11 10 10 10 9 9 8 8 7 7 6 6 6 5 4 4 6 7 6 6 6 5 3 3
14 13 11 10 10 10 11 12 12 13 13 13 12 10 10 10 11 12 12 12 11 11 10 10 9 9 9 8 7 7 6 6 6 4 6 7 6 6 5 5 3 3
13 13 14 15 15 14 13 11 11 12 11 12 10 10 10 10 11 11 11 11 12 11 11 10 10 9 9 8 8 8 7 7 7 5 6 7 6 6 4 4 3 3
16 16 16 15 12 13 11 10 11 10 9 10 12 10 9 9 10 11 11 11 11 11 11 11 11 10 9 9 9 8 7 7 6 6 6 5 5 6 5 4 4 3
17 15 13 13 11 10 10 12 13 12 12 11 8 9 10 9 10 10 10 10 10 10 10 11 10 10 10 9 9 8 7 7 7 7 7 6 5 6 5 5 4 3
12 13 14 13 12 11 11 13 12 11 11 10 12 9 10 10 11 12 12 11 10 10 10 10 11 10 11 10 9 8 8 8 7 7 7 7 6 5 5 5 5 4
16 14 14 12 10 11 12 12 10 11 11 10 8 11 11 12 12 12 12 12 11 11 11 11 11 11 10 10 9 9 8 8 7 7 8 6 7 6 5 5 5 5
15 12 11 10 12 12 12 11 11 11 10 9 12 11 12 13 13 12 12 13 12 12 11 11 11 11 10 10 10 10 9 7 8 8 7 7 7 6 6 5 5 5
14 12 12 13 14 13 14 13 12 10 10 12 11 10 10 12 13 12 13 13 12 12 11 11 11 11 10 10 10 10 10 8 8 8 9 9 8 7 7 6 6 6
14 13 13 14 15 15 16 14 12 11 11 12 12 10 12 10 11 12 12 13 13 12 12 11 11 10 10 9 10 10 10 9 8 8 8 8 9 8 8 8 8 7
14 13 14 15 17 14 16 14 13 12 11 13 12 12 12 11 10 10 12 13 13 14 13 12 12 11 11 10 8 8 9 9 9 8 8 8 8 8 8 8 7 7
15 14 16 18 18 15 16 15 14 13 13 11 13 13 12 12 13 12 13 14 12 13 12 12 12 12 11 11 10 9 8 8 8 8 8 8 8 8 7 7 6 6
15 17 18 17 16 16 14 12 13 13 13 13 12 13 14 13 12 13 11 13 13 12 13 13 12 11 11 10 10 10 10 10 9 8 7 6 6 6 5 5 5 6
17 18 17 16 14 12 12 13 12 12 13 12 12 14 14 15 15 15 12 11 12 12 12 11 11 10 10 10 11 11 10 10 9 9 8 7 6 6 6 5 5 6
16 13 11 11 11 12 12 13 14 13 12 12 13 13 12 13 13 14 13 12 10 11 11 10 11 12 10 11 10 10 10 10 9 9 9 8 7 7 6 6 6 7
12 10 11 11 11 13 14 13 13 13 13 13 13 13 12 12 12 12 13 14 14 12 11 11 11 9 12 20 16 12 11 9 9 9 8 8 8 7 7 8 8 7
11 12 12 14 14 13 11 12 13 12 13 13 12 12 13 12 12 13 12 11 13 13 14 12 10 9 21 22 22 20 12 11 11 10 9 9 8 8 8 8 8 8
12 12 12 13 11 13 13 12 11 11 12 13 12 13 12 11 13 13 12 12 11 11 12 11 11 16 23 23 22 22 16 9 7 9 9 8 8 8 7 7 8 8
11 12 13 12 13 13 12 12 13 13 13 13 14 12 11 13 13 12 12 12 12 14 13 12 10 18 23 24 23 21 20 14 9 8 8 8 8 8 8 7 7 7
11 12 13 12 11 11 12 13 13 15 13 11 11 11 13 12 12 14 13 13 13 13 12 11 11 17 23 23 22 22 21 15 8 9 8 7 8 7 7 7 8 8
12 12 12 12 12 12 13 13 14 12 13 12 13 14 15 15 15 14 13 13 12 11 10 10 9 19 23 23 23 22 21 15 9 8 7 7 7 7 8 8 8 7
12 12 12 12 13 13 14 14 14 14 15 12 11 10 9 9 9 10 13 13 12 11 11 10 9 20 23 23 24 23 23 11 9 9 9 8 8 9 9 8 7 5
12 13 13 13 14 15 15 15 15 14 12 10 12 11 12 11 12 11 10 12 12 11 11 9 9 18 24 24 23 24 18 9 10 8 8 9 9 8 8 7 6 6
11 12 13 14 14 16 16 13 11 9 11 11 14 13 12 11 10 10 9 10 12 12 11 10 9 16 24 23 23 24 15 10 9 8 8 9 7 7 6 6 8 14
7 8 10 11 13 12 11 12 13 12 10 9 9 10 10 9 9 10 9 9 9 10 13 11 9 14 23 22 24 23 15 9 9 9 8 8 8 7 7 6 7 10
8 9 9 10 10 9 9 10 9 10 11 11 10 10 10 10 10 10 12 10 9 10 10 10 11 10 15 23 22 23 20 11 9 10 10 10 9 8 7 7 7 7
Wind_Direction
196 195 200 198 202 198 191 192 195 196 199 196 200 197 195 190 178 184 182 175 176 173 171 170 167 166 165 165 166 164 173 172 163 159 144 135 137 143 148 154 155 156
201 199 200 200 202 199 199 195 194 197 199 199 201 192 192 181 185 181 181 177 174 175 168 168 171 168 166 167 168 165 165 164 165 173 148 141 147 141 146 152 151 139
200 200 201 202 203 200 198 193 194 200 199 201 193 193 190 184 180 182 181 176 174 171 171 170 169 170 168 167 166 167 168 167 170 171 151 148 140 137 140 137 132 143
205 205 205 208 203 201 194 189 198 198 195 191 199 189 180 181 178 179 180 177 175 174 172 170 171 168 168 167 165 170 170 172 166 156 142 130 132 132 134 131 130 120
205 206 207 207 204 197 188 197 198 197 196 198 177 179 175 173 176 178 179 181 177 175 173 173 169 169 166 167 168 166 169 165 166 159 148 136 135 131 137 131 135 140
210 208 208 203 200 193 196 201 200 193 192 185 190 170 181 172 176 180 178 177 179 175 177 175 172 170 170 168 167 170 168 167 171 158 147 141 136 133 137 139 141 144
209 206 206 201 197 198 201 202 196 192 192 190 157 185 172 176 179 180 178 177 175 178 179 178 174 173 173 167 169 169 173 167 163 157 147 143 138 138 138 139 142 138
207 202 199 195 200 198 203 200 196 192 185 169 186 182 176 179 179 177 176 175 176 178 180 180 181 176 172 168 169 170 169 167 164 158 150 145 143 146 143 143 144 143
202 196 192 195 197 201 204 201 196 188 177 183 183 180 181 180 179 175 174 173 175 177 179 181 180 176 176 172 173 171 169 169 166 162 157 152 154 156 156 153 153 162
200 198 191 195 199 202 203 199 191 186 179 183 182 174 178 180 175 174 170 174 175 176 179 178 176 176 174 178 175 171 168 166 163 163 160 159 158 160 162 165 167 167
202 194 197 199 203 201 202 194 191 184 182 183 175 177 177 169 173 172 173 174 179 178 176 177 179 174 174 174 173 171 166 161 163 162 163 163 162 161 166 166 170 174
202 196 202 203 203 200 199 193 188 184 182 182 176 174 171 174 171 174 178 180 177 177 177 177 176 176 174 171 168 164 162 163 162 161 159 157 159 160 160 165 163 160
200 202 204 204 202 201 194 186 185 184 179 179 175 172 171 172 176 175 180 178 177 172 176 175 174 173 169 166 166 167 166 164 161 157 152 150 147 145 144 146 159 160
205 207 204 202 200 194 187 186 181 178 180 174 169 173 175 175 174 176 174 174 174 175 174 169 169 169 166 167 169 169 165 162 161 158 155 151 150 151 155 159 165 170
208 205 201 196 190 187 183 183 182 177 173 172 175 176 175 176 173 171 166 169 170 171 166 167 170 175 176 171 159 163 166 163 159 157 155 155 154 155 163 169 178 188
200 191 191 188 185 187 188 182 177 174 173 173 176 175 171 169 168 170 170 170 168 168 168 171 179 178 176 173 170 164 161 159 158 160 157 155 152 160 175 185 189 192
183 189 182 186 190 184 179 177 177 173 173 173 172 170 169 168 166 168 171 170 169 168 173 179 177 175 177 176 174 169 161 162 162 159 156 158 163 168 174 183 190 195
189 180 181 185 176 182 178 176 168 170 174 173 169 169 170 164 169 171 167 166 167 171 176 177 178 180 179 178 176 173 166 150 143 156 159 162 166 171 176 183 191 198
178 178 182 177 182 175 170 167 171 172 174 172 176 171 158 167 171 165 170 168 169 172 179 180 179 184 183 180 176 173 166 157 160 155 155 162 166 171 180 190 196 198
178 178 180 180 171 167 167 171 173 180 177 171 160 159 169 170 170 172 169 172 175 177 177 177 179 188 185 181 176 171 167 158 158 159 155 160 165 174 187 197 202 202
178 177 176 171 170 169 170 175 177 172 169 171 170 173 174 176 173 174 175 173 173 172 171 176 182 190 185 182 178 170 166 153 153 153 157 165 172 181 195 201 206 202
177 177 173 169 169 171 174 177 177 176 173 170 167 170 172 165 172 172 170 171 170 169 168 176 183 192 185 182 179 176 167 152 158 162 164 168 174 187 192 194 192 197
180 176 174 172 172 173 178 177 175 174 170 162 165 171 170 175 174 171 168 166 167 170 170 174 182 191 184 181 179 178 171 143 158 157 158 159 171 170 182 187 194 199
178 177 175 173 173 180 180 177 170 164 169 168 171 169 173 174 163 159 163 167 168 171 174 170 181 188 183 181 179 179 164 153 157 154 151 161 161 176 175 188 203 212
170 174 175 174 179 179 172 168 170 169 159 158 166 165 166 157 158 160 160 164 167 165 171 171 175 186 182 180 180 180 167 156 160 162 156 164 169 174 182 190 208 223
163 169 171 174 172 163 164 163 152 148 158 164 163 162 157 159 161 162 164 166 160 162 170 166 175 183 181 180 180 181 167 159 159 168 174 169 169 175 188 198 200 215